ZHB YPJT-YPJT

Flight info

Callsign ZHB
Flight time 0h 25m
Altitude 5000
Route FREM DCT CTE DCT PCTY DCT HKE DCT OBC DCT POWR
Aircraft C172/L-SFG/C

Departure

Time 2026-04-27 06:09
Airport Perth Jandakot Airport (YPJT)

Arrival

Time 2026-04-27 06:34
Airport Perth Jandakot Airport (YPJT)
Time Latitude Longitude Altitude Speed Heading
2026-04-27 05:48 -32.09220 115.88259 96 ft 0 kts 355°
2026-04-27 06:03 -32.09226 115.88235 95 ft 9 kts 178°
2026-04-27 06:03 -32.09256 115.88273 94 ft 0 kts 138°
2026-04-27 06:05 -32.09265 115.88278 94 ft 6 kts 151°
2026-04-27 06:05 -32.09289 115.88306 94 ft 10 kts 133°
2026-04-27 06:05 -32.09340 115.88343 94 ft 6 kts 210°
2026-04-27 06:05 -32.09359 115.88318 94 ft 4 kts 234°
2026-04-27 06:06 -32.09382 115.88280 95 ft 7 kts 234°
2026-04-27 06:06 -32.09417 115.88219 94 ft 10 kts 233°
2026-04-27 06:06 -32.09467 115.88141 96 ft 13 kts 233°
2026-04-27 06:06 -32.09527 115.88042 95 ft 16 kts 236°
2026-04-27 06:07 -32.09596 115.87929 122 ft 18 kts 231°
2026-04-27 06:07 -32.09676 115.87797 95 ft 21 kts 235°
2026-04-27 06:07 -32.09766 115.87649 95 ft 23 kts 234°
2026-04-27 06:07 -32.09865 115.87490 95 ft 25 kts 233°
2026-04-27 06:08 -32.09957 115.87334 95 ft 16 kts 233°
2026-04-27 06:08 -32.10003 115.87280 96 ft 9 kts 161°
2026-04-27 06:08 -32.10033 115.87345 94 ft 27 kts 114°
2026-04-27 06:08 -32.10178 115.87726 96 ft 71 kts 113°
2026-04-27 06:09 -32.10397 115.88297 266 ft 81 kts 116°
2026-04-27 06:09 -32.10616 115.88885 532 ft 80 kts 121°
2026-04-27 06:09 -32.11039 115.89170 782 ft 77 kts 201°
2026-04-27 06:09 -32.11503 115.88770 950 ft 89 kts 231°
2026-04-27 06:10 -32.11478 115.88015 990 ft 115 kts 302°
2026-04-27 06:10 -32.11038 115.87214 1045 ft 117 kts 295°
2026-04-27 06:10 -32.10648 115.86348 957 ft 119 kts 295°
2026-04-27 06:10 -32.10216 115.85551 935 ft 116 kts 300°
2026-04-27 06:11 -32.09737 115.84782 963 ft 112 kts 303°
2026-04-27 06:11 -32.09270 115.84040 973 ft 113 kts 301°
2026-04-27 06:11 -32.08803 115.83292 969 ft 113 kts 303°
2026-04-27 06:11 -32.08219 115.82656 972 ft 117 kts 322°
2026-04-27 06:12 -32.07565 115.82095 976 ft 115 kts 321°
2026-04-27 06:12 -32.06923 115.81519 990 ft 117 kts 315°
2026-04-27 06:12 -32.06452 115.80778 1031 ft 113 kts 295°
2026-04-27 06:12 -32.06081 115.79981 1061 ft 110 kts 294°
2026-04-27 06:13 -32.05703 115.79200 1093 ft 111 kts 294°
2026-04-27 06:13 -32.05423 115.78346 1128 ft 112 kts 290°
2026-04-27 06:13 -32.05129 115.77568 1359 ft 97 kts 291°
2026-04-27 06:13 -32.04805 115.76894 1460 ft 101 kts 317°
2026-04-27 06:14 -32.04157 115.76491 1489 ft 108 kts 334°
2026-04-27 06:14 -32.03434 115.76171 1480 ft 115 kts 338°
2026-04-27 06:14 -32.02647 115.75952 1485 ft 118 kts 348°
2026-04-27 06:14 -32.01844 115.75761 1486 ft 119 kts 349°
2026-04-27 06:15 -32.01028 115.75595 1475 ft 116 kts 350°
2026-04-27 06:15 -32.00241 115.75427 1487 ft 115 kts 349°
2026-04-27 06:15 -31.99469 115.75337 1492 ft 113 kts
2026-04-27 06:15 -31.98782 115.75702 1497 ft 108 kts 49°
2026-04-27 06:16 -31.98405 115.76430 1495 ft 102 kts 85°
2026-04-27 06:16 -31.98292 115.77254 1501 ft 101 kts 95°
2026-04-27 06:16 -31.98088 115.78060 1506 ft 107 kts 65°
2026-04-27 06:16 -31.97774 115.78844 1512 ft 105 kts 70°
2026-04-27 06:17 -31.97462 115.79626 1505 ft 106 kts 71°
2026-04-27 06:17 -31.97134 115.80442 1495 ft 115 kts 71°
2026-04-27 06:17 -31.96890 115.81334 1500 ft 117 kts 75°
2026-04-27 06:17 -31.96548 115.82211 1509 ft 118 kts 70°
2026-04-27 06:18 -31.96227 115.83109 1492 ft 120 kts 70°
2026-04-27 06:18 -31.95849 115.83982 1500 ft 124 kts 56°
2026-04-27 06:18 -31.95229 115.84699 1496 ft 128 kts 35°
2026-04-27 06:18 -31.94402 115.84748 1488 ft 122 kts 327°
2026-04-27 06:19 -31.93823 115.84093 1488 ft 111 kts 290°
2026-04-27 06:19 -31.93458 115.83301 1494 ft 111 kts 294°
2026-04-27 06:19 -31.92966 115.82592 1496 ft 112 kts 310°
2026-04-27 06:19 -31.92427 115.81956 1493 ft 108 kts 309°
2026-04-27 06:20 -31.91884 115.81342 1494 ft 107 kts 310°
2026-04-27 06:20 -31.91492 115.80624 1497 ft 104 kts 292°
2026-04-27 06:20 -31.91186 115.79853 1499 ft 104 kts 289°
2026-04-27 06:20 -31.90942 115.79059 1500 ft 104 kts 287°
2026-04-27 06:21 -31.90646 115.78284 1502 ft 103 kts 292°
2026-04-27 06:21 -31.90353 115.77508 1502 ft 104 kts 292°
2026-04-27 06:21 -31.90054 115.76733 1501 ft 104 kts 286°
2026-04-27 06:21 -31.89942 115.75908 1484 ft 101 kts 263°
2026-04-27 06:22 -31.90227 115.75206 1504 ft 98 kts 210°
2026-04-27 06:22 -31.90897 115.75118 1512 ft 102 kts 184°
2026-04-27 06:22 -31.91618 115.75089 1517 ft 105 kts 184°
2026-04-27 06:22 -31.92374 115.75063 1520 ft 109 kts 182°
2026-04-27 06:23 -31.93157 115.75053 1500 ft 111 kts 184°
2026-04-27 06:23 -31.93914 115.75066 1502 ft 109 kts 185°
2026-04-27 06:23 -31.94662 115.75064 1499 ft 108 kts 186°
2026-04-27 06:23 -31.95410 115.74967 1497 ft 110 kts 188°
2026-04-27 06:24 -31.96160 115.74849 1491 ft 107 kts 189°
2026-04-27 06:24 -31.96875 115.74742 1491 ft 101 kts 190°
2026-04-27 06:24 -31.97561 115.74657 1493 ft 98 kts 189°
2026-04-27 06:24 -31.98240 115.74555 1492 ft 96 kts 191°
2026-04-27 06:25 -31.98893 115.74421 1508 ft 98 kts 189°
2026-04-27 06:25 -31.99542 115.74232 1511 ft 96 kts 192°
2026-04-27 06:25 -32.00213 115.74062 1512 ft 98 kts 192°
2026-04-27 06:25 -32.00894 115.73881 1507 ft 102 kts 192°
2026-04-27 06:26 -32.01590 115.73692 1507 ft 104 kts 194°
2026-04-27 06:26 -32.02279 115.73359 1502 ft 110 kts 202°
2026-04-27 06:26 -32.02984 115.73002 1505 ft 111 kts 202°
2026-04-27 06:26 -32.03703 115.72641 1507 ft 114 kts 201°
2026-04-27 06:27 -32.04446 115.72285 1502 ft 116 kts 195°
2026-04-27 06:27 -32.05182 115.72565 1480 ft 120 kts 136°
2026-04-27 06:27 -32.05772 115.73159 1466 ft 108 kts 168°
2026-04-27 06:27 -32.06451 115.73490 1386 ft 98 kts 155°
2026-04-27 06:28 -32.07036 115.73837 1407 ft 88 kts 154°
2026-04-27 06:28 -32.07562 115.74241 1417 ft 101 kts 151°
2026-04-27 06:28 -32.08130 115.74641 1483 ft 87 kts 156°
2026-04-27 06:28 -32.08695 115.74955 1417 ft 94 kts 161°
2026-04-27 06:29 -32.09291 115.75216 1457 ft 89 kts 164°
2026-04-27 06:29 -32.09864 115.75586 1458 ft 97 kts 148°
2026-04-27 06:29 -32.10227 115.76249 1578 ft 104 kts 112°
2026-04-27 06:29 -32.10374 115.77110 1477 ft 121 kts 105°
2026-04-27 06:30 -32.10497 115.78039 1517 ft 109 kts 104°
2026-04-27 06:30 -32.10595 115.78904 1442 ft 109 kts 104°
2026-04-27 06:30 -32.10586 115.79785 1407 ft 106 kts 89°
2026-04-27 06:30 -32.10444 115.80640 1303 ft 111 kts 71°
2026-04-27 06:31 -32.10161 115.81482 1288 ft 106 kts 76°
2026-04-27 06:31 -32.09918 115.82313 1199 ft 109 kts 78°
2026-04-27 06:31 -32.09715 115.83157 1157 ft 104 kts 84°
2026-04-27 06:31 -32.09550 115.83964 1056 ft 101 kts 83°
2026-04-27 06:32 -32.09393 115.84746 952 ft 92 kts 83°
2026-04-27 06:32 -32.09328 115.85413 842 ft 74 kts 102°
2026-04-27 06:32 -32.09441 115.85963 588 ft 64 kts 117°
2026-04-27 06:32 -32.09642 115.86402 328 ft 65 kts 121°
2026-04-27 06:34 -32.09690 115.86505 290 ft 63 kts 120°
2026-04-27 06:34 -32.09884 115.86955 147 ft 62 kts 113°
2026-04-27 06:34 -32.10054 115.87388 94 ft 48 kts 111°
2026-04-27 06:35 -32.10071 115.87553 94 ft 9 kts 11°
2026-04-27 06:35 -32.10045 115.87566 95 ft 0 kts 18°
2026-04-27 06:35 -32.10013 115.87559 95 ft 11 kts 307°
2026-04-27 06:35 -32.09966 115.87473 95 ft 11 kts 286°
2026-04-27 06:36 -32.09995 115.87496 94 ft 6 kts 67°
2026-04-27 06:36 -32.09960 115.87449 95 ft 14 kts 325°
2026-04-27 06:36 -32.09876 115.87469 95 ft 25 kts 59°
2026-04-27 06:36 -32.09707 115.87743 95 ft 43 kts 58°
2026-04-27 06:37 -32.09528 115.88037 95 ft 47 kts 54°
2026-04-27 06:37 -32.09366 115.88301 93 ft 27 kts 51°
2026-04-27 06:37 -32.09262 115.88270 94 ft 20 kts 306°
2026-04-27 06:37 -32.09236 115.88272 96 ft 5 kts 218°
2026-04-27 06:38 -32.09237 115.88272 95 ft 0 kts 203°
2026-04-27 06:48 -32.09238 115.88271 94 ft 2 kts 204°
2026-04-27 06:48 -32.09317 115.88330 93 ft 38 kts 134°
2026-04-27 06:48 -32.09670 115.88546 129 ft 70 kts 165°
2026-04-27 06:49 -32.10187 115.88658 319 ft 77 kts 174°
2026-04-27 06:49 -32.10718 115.88711 596 ft 77 kts 177°
2026-04-27 06:49 -32.11177 115.88460 843 ft 84 kts 254°
2026-04-27 06:49 -32.11077 115.87759 1049 ft 94 kts 269°
2026-04-27 06:50 -32.10844 115.86932 1047 ft 121 kts 301°
2026-04-27 06:50 -32.10380 115.86055 1030 ft 125 kts 298°
2026-04-27 06:50 -32.09946 115.85252 1070 ft 110 kts 304°
2026-04-27 06:50 -32.09342 115.84780 1121 ft 106 kts 357°
2026-04-27 06:51 -32.08676 115.85100 820 ft 110 kts 73°
2026-04-27 06:51 -32.08750 115.85899 769 ft 87 kts 130°
2026-04-27 06:51 -32.09123 115.86272 792 ft 67 kts 154°
2026-04-27 06:51 -32.09521 115.86530 617 ft 66 kts 151°
2026-04-27 06:52 -32.09840 115.86916 362 ft 68 kts 125°
2026-04-27 06:52 -32.10057 115.87407 98 ft 63 kts 111°
2026-04-27 06:52 -32.10191 115.87736 94 ft 28 kts 112°
2026-04-27 06:53 -32.09220 115.88259 94 ft 6 kts 355°
2026-04-27 06:56 -32.09219 115.88259 94 ft 0 kts 355°
2026-04-27 06:58 -32.09213 115.88247 95 ft 0 kts 258°